• en France
  • Liste des pays
  • À 7 jours
  • Température de l'eau
  • Carte satellitaire
  • Carte météo
  • Widgets météo
  • user-avatar
    Se connecter

    Météo par heure à Vladimiro-Konstantinovka

    Ce jour, 17 Juillet, Mardi

    Heure Température Précipitation Vent Pression Humidité
    00:00 +21°C° 0 mm 3 m/s 738 mmHg 92%
    01:00 +20°C° 0 mm 3 m/s 738 mmHg 93%
    02:00 +20°C° 0 mm 3 m/s 737 mmHg 93%
    03:00 +20°C° 0 mm 3 m/s 737 mmHg 94%
    04:00 +20°C° 0,1 mm 4 m/s 737 mmHg 94%
    05:00 +20°C° 0,1 mm 4 m/s 737 mmHg 93%
    06:00 +20°C° 0,1 mm 4 m/s 737 mmHg 92%
    07:00 +21°C° 0,3 mm 4 m/s 736 mmHg 89%
    08:00 +22°C° 0,3 mm 4 m/s 736 mmHg 86%
    09:00 +23°C° 0,3 mm 4 m/s 736 mmHg 83%
    10:00 +23°C° 0,9 mm 5 m/s 736 mmHg 82%
    11:00 +23°C° 0,9 mm 5 m/s 736 mmHg 82%
    12:00 +23°C° 0,9 mm 5 m/s 736 mmHg 82%
    13:00 +23°C° 1,1 mm 5 m/s 736 mmHg 85%
    14:00 +22°C° 1,1 mm 5 m/s 735 mmHg 87%
    15:00 +21°C° 1,1 mm 5 m/s 735 mmHg 89%
    16:00 +21°C° 0,7 mm 5 m/s 735 mmHg 90%
    17:00 +21°C° 0,7 mm 5 m/s 734 mmHg 91%
    18:00 +21°C° 0,7 mm 5 m/s 734 mmHg 91%
    19:00 +20°C° 0,2 mm 5 m/s 734 mmHg 92%
    20:00 +20°C° 0,2 mm 5 m/s 734 mmHg 93%
    21:00 +19°C° 0,2 mm 5 m/s 733 mmHg 94%
    22:00 +20°C° 0,1 mm 5 m/s 733 mmHg 94%
    23:00 +20°C° 0,1 mm 5 m/s 733 mmHg 95%

    Demain, 18 Juillet, Mercredi

    Heure Température Précipitation Vent Pression Humidité
    00:00 +20°C° 0,1 mm 5 m/s 732 mmHg 95%
    01:00 +20°C° 0,1 mm 5 m/s 732 mmHg 95%
    02:00 +20°C° 0,1 mm 5 m/s 732 mmHg 96%
    03:00 +20°C° 0,1 mm 5 m/s 732 mmHg 96%
    04:00 +20°C° 0,2 mm 5 m/s 731 mmHg 96%
    05:00 +20°C° 0,2 mm 4 m/s 731 mmHg 95%
    06:00 +19°C° 0,2 mm 4 m/s 731 mmHg 95%
    07:00 +20°C° 0,1 mm 5 m/s 731 mmHg 94%
    08:00 +20°C° 0,1 mm 5 m/s 731 mmHg 92%
    09:00 +20°C° 0,1 mm 5 m/s 731 mmHg 91%
    10:00 +20°C° 0,2 mm 5 m/s 731 mmHg 91%
    11:00 +20°C° 0,2 mm 5 m/s 732 mmHg 90%
    12:00 +21°C° 0,2 mm 4 m/s 732 mmHg 90%
    13:00 +21°C° 0,5 mm 4 m/s 732 mmHg 88%
    14:00 +22°C° 0,5 mm 4 m/s 732 mmHg 85%
    15:00 +23°C° 0,5 mm 4 m/s 732 mmHg 83%
    16:00 +23°C° 0,9 mm 4 m/s 732 mmHg 84%
    17:00 +23°C° 0,9 mm 4 m/s 732 mmHg 84%
    18:00 +23°C° 0,9 mm 4 m/s 732 mmHg 85%
    19:00 +22°C° 1 mm 4 m/s 732 mmHg 88%
    20:00 +21°C° 1 mm 5 m/s 733 mmHg 91%
    21:00 +20°C° 1 mm 5 m/s 733 mmHg 93%
    22:00 +20°C° 1 mm 5 m/s 733 mmHg 94%
    23:00 +20°C° 1 mm 5 m/s 733 mmHg 94%

    Après-demain, 19 Juillet, Jeudi

    Heure Température Précipitation Vent Pression Humidité
    00:00 +19°C° 1 mm 5 m/s 733 mmHg 95%
    01:00 +19°C° 0,9 mm 5 m/s 733 mmHg 95%
    02:00 +19°C° 0,9 mm 5 m/s 734 mmHg 95%
    03:00 +19°C° 0,9 mm 5 m/s 734 mmHg 95%
    04:00 +19°C° 0,5 mm 5 m/s 734 mmHg 95%
    05:00 +19°C° 0,5 mm 5 m/s 735 mmHg 94%
    06:00 +19°C° 0,5 mm 5 m/s 735 mmHg 94%
    07:00 +20°C° 0,3 mm 5 m/s 736 mmHg 90%
    08:00 +21°C° 0,3 mm 6 m/s 736 mmHg 87%
    09:00 +22°C° 0,3 mm 6 m/s 736 mmHg 83%
    10:00 +23°C° 0,1 mm 6 m/s 737 mmHg 77%
    11:00 +24°C° 0,1 mm 6 m/s 737 mmHg 72%
    12:00 +27°C° 0,1 mm 7 m/s 737 mmHg 66%
    13:00 +27°C° 0,4 mm 6 m/s 737 mmHg 66%
    14:00 +27°C° 0,4 mm 6 m/s 738 mmHg 66%
    15:00 +27°C° 0,4 mm 6 m/s 738 mmHg 66%
    16:00 +27°C° 0,3 mm 5 m/s 738 mmHg 69%
    17:00 +26°C° 0,3 mm 5 m/s 738 mmHg 73%
    18:00 +26°C° 0,3 mm 4 m/s 738 mmHg 76%
    19:00 +25°C° 1,1 mm 4 m/s 739 mmHg 80%
    20:00 +22°C° 1,1 mm 4 m/s 739 mmHg 84%
    21:00 +21°C° 1,1 mm 4 m/s 739 mmHg 88%
    22:00 +21°C° 1 mm 4 m/s 739 mmHg 89%
    23:00 +20°C° 1 mm 3 m/s 739 mmHg 90%

    20 Juillet, Vendredi

    Heure Température Précipitation Vent Pression Humidité
    00:00 +20°C° 1 mm 3 m/s 739 mmHg 91%
    01:00 +20°C° 0 mm 3 m/s 739 mmHg 92%
    02:00 +19°C° 0 mm 3 m/s 739 mmHg 93%
    03:00 +19°C° 0 mm 3 m/s 739 mmHg 94%
    04:00 +19°C° 0 mm 3 m/s 739 mmHg 93%
    05:00 +19°C° 0 mm 3 m/s 739 mmHg 92%
    06:00 +20°C° 0 mm 3 m/s 740 mmHg 92%
    07:00 +21°C° 0,1 mm 3 m/s 740 mmHg 87%
    08:00 +24°C° 0,1 mm 3 m/s 740 mmHg 83%
    09:00 +25°C° 0,1 mm 3 m/s 740 mmHg 79%
    10:00 +26°C° 0,9 mm 4 m/s 740 mmHg 75%
    11:00 +27°C° 0,9 mm 4 m/s 739 mmHg 70%
    12:00 +28°C° 0,9 mm 5 m/s 739 mmHg 66%
    13:00 +29°C° 0,8 mm 4 m/s 739 mmHg 66%
    14:00 +29°C° 0,8 mm 4 m/s 739 mmHg 65%
    15:00 +29°C° 0,8 mm 3 m/s 739 mmHg 65%
    16:00 +29°C° 0,9 mm 3 m/s 739 mmHg 69%
    17:00 +28°C° 0,9 mm 2 m/s 739 mmHg 74%
    18:00 +27°C° 0,9 mm 2 m/s 739 mmHg 79%
    19:00 +26°C° 0 mm 2 m/s 739 mmHg 82%
    20:00 +25°C° 0 mm 2 m/s 739 mmHg 85%
    21:00 +23°C° 0 mm 2 m/s 739 mmHg 88%
    22:00 +23°C° 0,2 mm 2 m/s 739 mmHg 89%
    23:00 +21°C° 0,2 mm 2 m/s 739 mmHg 91%

    21 Juillet, Samedi

    Heure Température Précipitation Vent Pression Humidité
    00:00 +21°C° 0,2 mm 2 m/s 739 mmHg 92%
    01:00 +21°C° 0 mm 2 m/s 739 mmHg 93%
    02:00 +20°C° 0 mm 2 m/s 739 mmHg 93%
    03:00 +21°C° 0 mm 1 m/s 739 mmHg 93%
    04:00 +20°C° 0 mm 2 m/s 739 mmHg 93%
    05:00 +20°C° 0 mm 2 m/s 739 mmHg 93%
    06:00 +21°C° 0 mm 2 m/s 740 mmHg 93%
    07:00 +23°C° 0,3 mm 2 m/s 740 mmHg 88%
    08:00 +24°C° 0,3 mm 2 m/s 740 mmHg 84%
    09:00 +25°C° 0,3 mm 3 m/s 740 mmHg 80%
    10:00 +26°C° 0,6 mm 3 m/s 740 mmHg 75%
    11:00 +27°C° 0,6 mm 3 m/s 740 mmHg 70%
    12:00 +28°C° 0,6 mm 3 m/s 740 mmHg 66%
    13:00 +29°C° 0,3 mm 3 m/s 740 mmHg 65%
    14:00 +29°C° 0,3 mm 3 m/s 740 mmHg 63%
    15:00 +30°C° 0,3 mm 3 m/s 740 mmHg 62%
    16:00 +29°C° 0,4 mm 3 m/s 740 mmHg 66%
    17:00 +29°C° 0,4 mm 3 m/s 740 mmHg 69%
    18:00 +29°C° 0,4 mm 2 m/s 740 mmHg 73%
    19:00 +27°C° 0,1 mm 2 m/s 740 mmHg 77%
    20:00 +25°C° 0,1 mm 2 m/s 740 mmHg 82%
    21:00 +24°C° 0,1 mm 2 m/s 740 mmHg 86%
    22:00 +23°C° 0,1 mm 2 m/s 740 mmHg 88%
    23:00 +23°C° 0,1 mm 2 m/s 740 mmHg 89%

    22 Juillet, Dimanche

    Heure Température Précipitation Vent Pression Humidité
    00:00 +21°C° 0,1 mm 2 m/s 739 mmHg 91%
    01:00 +21°C° 0 mm 2 m/s 739 mmHg 92%
    02:00 +21°C° 0 mm 2 m/s 739 mmHg 92%
    03:00 +20°C° 0 mm 2 m/s 739 mmHg 93%
    04:00 +20°C° 0 mm 2 m/s 739 mmHg 92%
    05:00 +21°C° 0 mm 2 m/s 739 mmHg 91%
    06:00 +21°C° 0 mm 2 m/s 740 mmHg 90%
    07:00 +24°C° 0,3 mm 2 m/s 740 mmHg 86%
    08:00 +25°C° 0,3 mm 3 m/s 740 mmHg 81%
    09:00 +27°C° 0,3 mm 3 m/s 739 mmHg 76%
    10:00 +28°C° 0,5 mm 3 m/s 739 mmHg 71%
    11:00 +29°C° 0,5 mm 3 m/s 739 mmHg 67%
    12:00 +30°C° 0,5 mm 3 m/s 739 mmHg 62%
    13:00 +30°C° 0,6 mm 3 m/s 739 mmHg 62%
    14:00 +30°C° 0,6 mm 3 m/s 739 mmHg 62%
    15:00 +30°C° 0,6 mm 3 m/s 739 mmHg 62%
    16:00 +30°C° 1,5 mm 3 m/s 739 mmHg 67%
    17:00 +29°C° 1,5 mm 2 m/s 739 mmHg 72%
    18:00 +28°C° 1,5 mm 2 m/s 739 mmHg 78%
    19:00 +27°C° 0,6 mm 2 m/s 739 mmHg 82%
    20:00 +25°C° 0,6 mm 3 m/s 739 mmHg 85%
    21:00 +24°C° 0,6 mm 3 m/s 739 mmHg 89%
    22:00 +22°C° 0,5 mm 3 m/s 739 mmHg 91%
    23:00 +22°C° 0,5 mm 3 m/s 739 mmHg 92%
    Voir plus